Weather History for KFKS - February, 2014

Change the Weather History Date:

Wednesday, February 19, 2014

  Actual Average (KTVC) Record (KTVC)
Temperature  
Mean Temperature 30 °F 23 °F  
Max Temperature 37 °F 31 °F 54 °F (1994)
Min Temperature 23 °F 15 °F -20 °F (1979)
Degree Days  
Heating Degree Days 36 42  
Month to date heating degree days 819  
Since 1 July heating degree days 4975  
Moisture  
Dew Point 26 °F    
Average Humidity 81    
Maximum Humidity 97    
Minimum Humidity 62    
Precipitation  
Precipitation 0.00 in 0.05 in 0.69 in (1971)
Month to date precipitation 1.02  
Year to date precipitation 3.84  
Sea Level Pressure  
Sea Level Pressure 29.76 in    
Wind  
Wind Speed 3 mph (SW)    
Max Wind Speed 12 mph    
Max Gust Speed 16 mph    
Visibility 7 miles    
Events Fog    
T = Trace of Precipitation, MM = Missing Value Source: NWS Daily Summary

Daily Weather History Graph

Daily Weather History Graph

Search for Another Location

Airport or City:

Trip Planner

Search our weather history database for the weather conditions in past years. The results will help you decide how hot, cold, wet, or windy it might be!

Date:

Astronomy

Feb. 19, 2014 Rise Set
Actual Time 7:38 AM EST 6:19 PM EST
Civil Twilight 7:09 AM EST 6:48 PM EST
Nautical Twilight 6:35 AM EST 7:22 PM EST
Astronomical Twilight 6:01 AM EST 7:56 PM EST
Moon 11:25 PM EST (2/19) 9:32 AM EST (2/19)
Length of Visible Light 11h 39m
Length of Day
10h 40m
Waning Gibbous, 80% of the Moon is Illuminated
Feb 19
Waning Gibbous
Feb 22
Last Quarter
Mar 1
New
Mar 8
First Quarter
Mar 16
Full

Hourly Weather History & Observations

Time (EST) Temp. Windchill Dew Point Humidity Pressure Visibility Wind Dir Wind Speed Gust Speed Precip Events Conditions
12:13 AM 31.8 °F 26.2 °F 29.8 °F 92% 29.58 in 10.0 mi WNW 5.8 mph - N/A   Clear
12:33 AM 31.1 °F - 29.5 °F 94% 29.59 in 7.0 mi Calm Calm - N/A   Clear
12:54 AM 28.0 °F - 26.6 °F 94% 29.59 in 2.0 mi Calm Calm - N/A   Clear
1:14 AM 25.5 °F - 24.4 °F 96% 29.60 in 1.0 mi Calm Calm - N/A   Mist
1:34 AM 25.2 °F - 24.4 °F 97% 29.60 in 0.2 mi Calm Calm - N/A Fog Light Freezing Fog
1:54 AM 27.0 °F - 26.2 °F 97% 29.60 in 0.2 mi Calm Calm - N/A Fog Light Freezing Fog
2:14 AM 26.4 °F - 25.7 °F 97% 29.61 in 0.5 mi Calm Calm - N/A Fog Light Freezing Fog
2:34 AM 24.1 °F - 23.2 °F 96% 29.60 in 0.5 mi Calm Calm - N/A Fog Light Freezing Fog
2:54 AM 26.4 °F - 25.7 °F 97% 29.61 in 0.2 mi Calm Calm - N/A Fog Light Freezing Fog
3:14 AM 26.8 °F - 25.9 °F 96% 29.60 in 3.0 mi Calm Calm - N/A   Mostly Cloudy
3:35 AM 28.4 °F - 27.5 °F 96% 29.60 in 3.0 mi Calm Calm - N/A   Overcast
3:55 AM 29.5 °F - 28.6 °F 96% 29.60 in 4.0 mi Calm Calm - N/A   Mostly Cloudy
4:15 AM 28.6 °F - 27.9 °F 97% 29.60 in 3.0 mi Calm Calm - N/A   Overcast
4:35 AM 27.9 °F - 26.8 °F 96% 29.60 in 4.0 mi Calm Calm - N/A   Overcast
4:55 AM 28.4 °F - 27.1 °F 95% 29.60 in 4.0 mi Calm Calm - N/A   Overcast
5:15 AM 28.6 °F - 27.7 °F 96% 29.60 in 3.0 mi Calm Calm - N/A   Overcast
5:35 AM 28.2 °F - 26.6 °F 94% 29.61 in 4.0 mi Calm Calm - N/A   Scattered Clouds
5:55 AM 28.0 °F - 26.1 °F 92% 29.62 in 5.0 mi Calm Calm - N/A   Scattered Clouds
6:15 AM 28.6 °F - 26.2 °F 91% 29.63 in 5.0 mi Calm Calm - N/A   Mostly Cloudy
6:36 AM 29.3 °F - 27.3 °F 92% 29.64 in 5.0 mi Calm Calm - N/A   Mostly Cloudy
6:56 AM 25.7 °F - 24.3 °F 94% 29.65 in 2.0 mi Calm Calm - N/A   Mostly Cloudy
7:16 AM 26.6 °F - 24.8 °F 93% 29.66 in 4.0 mi Calm Calm - N/A   Clear
7:36 AM 25.2 °F - 23.9 °F 95% 29.67 in 2.5 mi Calm Calm - N/A   Clear
7:56 AM 23.7 °F - 22.3 °F 94% 29.67 in 1.0 mi Calm Calm - N/A   Mist
8:11 AM 23.5 °F - 22.6 °F 96% 29.68 in 1.2 mi Calm Calm - N/A   Mist
8:31 AM 23.0 °F - 22.1 °F 96% 29.70 in 0.8 mi Calm Calm - N/A   Mist
8:51 AM 26.2 °F - 25.3 °F 96% 29.70 in 2.0 mi Calm Calm - N/A   Clear
9:11 AM 28.0 °F - 27.1 °F 96% 29.71 in 3.0 mi Calm Calm - N/A   Clear
9:31 AM 32.2 °F 24.4 °F 30.0 °F 92% 29.72 in 7.0 mi West 9.2 mph - N/A   Clear
9:52 AM 33.8 °F 28.6 °F 29.5 °F 84% 29.74 in 7.0 mi West 5.8 mph - N/A   Clear
10:12 AM 34.9 °F 29.9 °F 29.3 °F 80% 29.74 in 10.0 mi West 5.8 mph - N/A   Clear
10:32 AM 34.9 °F 30.8 °F 28.9 °F 79% 29.75 in 10.0 mi WSW 4.6 mph - N/A   Clear
10:52 AM 34.7 °F 29.6 °F 28.6 °F 78% 29.76 in 10.0 mi WSW 5.8 mph - N/A   Clear
11:12 AM 34.9 °F 30.8 °F 28.4 °F 77% 29.77 in 10.0 mi West 4.6 mph - N/A   Clear
11:32 AM 35.4 °F 28.4 °F 28.4 °F 76% 29.78 in 10.0 mi WSW 9.2 mph - N/A   Clear
11:52 AM 35.1 °F 28.6 °F 28.4 °F 77% 29.79 in 10.0 mi WSW 8.1 mph - N/A   Clear
12:12 PM 35.1 °F 28.6 °F 28.2 °F 76% 29.80 in 10.0 mi WSW 8.1 mph - N/A   Clear
12:32 PM 35.6 °F 29.2 °F 28.2 °F 75% 29.80 in 10.0 mi WSW 8.1 mph - N/A   Clear
12:53 PM 35.6 °F 30.7 °F 28.0 °F 74% 29.81 in 10.0 mi WSW 5.8 mph - N/A   Clear
1:13 PM 35.4 °F 29.0 °F 27.3 °F 72% 29.81 in 10.0 mi SW 8.1 mph - N/A   Clear
1:33 PM 35.8 °F 31.9 °F 27.1 °F 71% 29.82 in 10.0 mi SW 4.6 mph - N/A   Clear
1:53 PM 35.2 °F 29.5 °F 26.8 °F 71% 29.82 in 10.0 mi SW 6.9 mph - N/A   Clear
2:13 PM 35.1 °F 27.4 °F 26.6 °F 71% 29.82 in 10.0 mi SW 10.4 mph - N/A   Clear
2:33 PM 35.2 °F 28.1 °F 26.6 °F 71% 29.83 in 10.0 mi WSW 9.2 mph - N/A   Clear
2:53 PM 35.2 °F 27.1 °F 26.6 °F 71% 29.82 in 10.0 mi WSW 11.5 mph - N/A   Clear
3:13 PM 35.2 °F 28.1 °F 26.4 °F 70% 29.83 in 10.0 mi SW 9.2 mph - N/A   Clear
3:34 PM 35.2 °F 29.5 °F 26.8 °F 71% 29.83 in 10.0 mi South 6.9 mph - N/A   Clear
3:54 PM 35.1 °F 27.9 °F 26.8 °F 72% 29.85 in 10.0 mi SSW 9.2 mph - N/A   Clear
4:14 PM 35.2 °F 28.1 °F 27.5 °F 73% 29.86 in 10.0 mi SSW 9.2 mph - N/A   Clear
4:34 PM 35.2 °F 28.1 °F 27.1 °F 72% 29.88 in 10.0 mi SW 9.2 mph - N/A   Clear
4:54 PM 34.9 °F 27.7 °F 27.5 °F 74% 29.88 in 10.0 mi SSW 9.2 mph - N/A   Clear
5:14 PM 34.7 °F 29.6 °F 27.7 °F 76% 29.89 in 10.0 mi SSW 5.8 mph 16.1 mph N/A   Clear
5:34 PM 34.3 °F 27.7 °F 27.5 °F 76% 29.89 in 10.0 mi SSW 8.1 mph - N/A   Clear
5:54 PM 34.2 °F 30.0 °F 27.0 °F 75% 29.89 in 10.0 mi South 4.6 mph - N/A   Clear
6:14 PM 34.2 °F 28.2 °F 26.6 °F 74% 29.90 in 10.0 mi SSW 6.9 mph - N/A   Clear
6:34 PM 33.8 °F 27.7 °F 27.1 °F 77% 29.90 in 10.0 mi SSW 6.9 mph - N/A   Clear
6:55 PM 33.8 °F 29.6 °F 27.0 °F 76% 29.91 in 10.0 mi SSW 4.6 mph - N/A   Clear
7:15 PM 34.7 °F 30.6 °F 26.1 °F 71% 29.92 in 10.0 mi SSW 4.6 mph - N/A   Clear
7:35 PM 35.1 °F 30.1 °F 25.7 °F 69% 29.91 in 10.0 mi SW 5.8 mph - N/A   Clear
7:55 PM 35.8 °F 30.1 °F 25.3 °F 66% 29.91 in 10.0 mi SSW 6.9 mph - N/A   Clear
8:15 PM 36.1 °F 31.4 °F 25.3 °F 65% 29.91 in 10.0 mi SSW 5.8 mph - N/A   Clear
8:35 PM 36.3 °F 33.7 °F 25.2 °F 64% 29.91 in 10.0 mi SSW 3.5 mph - N/A   Clear
8:55 PM 36.9 °F 34.3 °F 25.0 °F 62% 29.91 in 10.0 mi SSW 3.5 mph - N/A   Clear
9:15 PM 36.9 °F 33.1 °F 25.2 °F 63% 29.91 in 10.0 mi SSW 4.6 mph - N/A   Clear
9:35 PM 36.9 °F 34.3 °F 25.0 °F 62% 29.91 in 10.0 mi SW 3.5 mph - N/A   Clear
9:56 PM 36.5 °F - 25.2 °F 64% 29.91 in 10.0 mi Calm Calm - N/A   Clear
10:16 PM 31.3 °F - 23.2 °F 72% 29.92 in 10.0 mi Calm Calm - N/A   Clear
10:36 PM 33.1 °F 27.7 °F 24.4 °F 71% 29.92 in 10.0 mi ESE 5.8 mph - N/A   Clear
10:56 PM 33.6 °F 29.4 °F 24.8 °F 70% 29.91 in 10.0 mi SE 4.6 mph - N/A   Clear
11:11 PM 33.1 °F 30.0 °F 24.8 °F 72% 29.90 in 10.0 mi SE 3.5 mph - N/A   Clear
11:31 PM 31.5 °F - 24.1 °F 74% 29.91 in 10.0 mi Calm Calm - N/A   Clear
11:51 PM 30.4 °F 26.9 °F 23.7 °F 76% 29.91 in 10.0 mi ESE 3.5 mph - N/A   Clear